a  45.9039602      Node     4.87866     +0.40823851     +0.75988264             
e   0.1306619      Incl.    6.97766     +0.22884936     +0.45128086             
P 311              H    9.03          G   0.15           U   6                  
Residuals in seconds of arc
K198U  W84  0.1+  0.1+    K20AI  W84  0.1+  0.0     K21A4  W84  0.1+  0.0  
K198U  W84  0.1-  0.1+    K20AI  W84  0.0   0.1-    K21A4  W84  0.0   0.0  
K199S  W84  0.1+  0.1-    K2196  W84  0.0   0.0     
K199S  W84  0.1-  0.0     K2196  W84  0.1-  0.1+    
2019 QU110                                                                      
Epoch 2023 Sept. 13.0 TT = JDT 2460200.5                Pike                    
M 267.30248              (2000.0)            P               Q                  
n   0.00318175     Peri.  355.36867     -0.12295121     -0.99199231             
a  45.7817539      Node   101.69180     +0.91146558     -0.12438759             
e   0.0823169      Incl.    1.69020     +0.39257292     -0.02188549             
P 310              H    8.60          G   0.15           U   6                  
Residuals in seconds of arc
K198T  W84  0.1+  0.1+    K199R  W84  0.1-  0.0     K21A7  W84  0.1+  0.0  
K198T  W84  0.1-  0.1-    K20AG  W84  0.0   0.1-    K21A7  W84  0.1-  0.0  
K199R  W84  0.1+  0.0     K20AG  W84  0.0   0.2+    
2019 SN235                                                                      
Epoch 2023 Sept. 13.0 TT = JDT 2460200.5                Pike                    
M 264.03092              (2000.0)            P               Q                  
n   0.00320562     Peri.  303.35746     -0.31231754     -0.94833402             
a  45.5541586      Node   164.54353     +0.92629814     -0.31705260             
e   0.1626077      Incl.   12.09897     +0.21078308     -0.01184214             
P 307              H    7.82          G   0.15           U   7                  
Residuals in seconds of arc
K198T  W84  0.0   0.0     K20AJ  W84  0.0   0.0     K21A2  W84  0.1+  0.0  
K198T  W84  0.0   0.0     K20AJ  W84  0.0   0.0     K21A2  W84  0.0   0.0  
K199R  W84  0.0   0.0     K219D  W84  0.1+  0.2-    
K199R  W84  0.0   0.0     K219D  W84  0.2-  0.1+    
2021 RC237                                                                      
Epoch 2023 Sept. 13.0 TT = JDT 2460200.5                Pike                    
M  36.39792              (2000.0)            P               Q                  
n   0.00314794     Peri.  229.44927     +0.68009425     +0.73275185             
a  46.1089485      Node    83.41807     -0.66531586     +0.63027080             
e   0.0899581      Incl.    1.34848     -0.30793931     +0.25658029             
P 313              H    8.34          G   0.15           U   7                  
Residuals in seconds of arc
K198T  W84  0.0   0.0     K20AH  W84  0.0   0.0     K21A7  W84  0.0   0.0  
K198T  W84  0.0   0.0     K20AH  W84  0.0   0.0     K21A7  W84  0.0   0.0  
K20AG  W84  0.0   0.0     K2195  W84  0.1+  0.0     
K20AG  W84  0.0   0.1-    K2195  W84  0.1-  0.0     
2021 RD237                                                                      
Epoch 2023 Sept. 13.0 TT = JDT 2460200.5                Pike                    
M 194.81038              (2000.0)            P               Q                  
n   0.00363036     Peri.  169.84684     -0.95988431     -0.27291618             
a  41.9278984      Node   353.19842     +0.20370104     -0.52106020             
e   0.1268562      Incl.   32.90301     +0.19268627     -0.80871072             
P 271              H    8.37          G   0.15           U   7                  
Residuals in seconds of arc
K198T  W84  0.0   0.1+    K20AH  W84  0.0   0.0     K21A3  W84  0.0   0.1- 
K198T  W84  0.0   0.1+    K20AH  W84  0.0   0.0     K21A3  W84  0.1+  0.0  
K199R  W84  0.1+  0.2-    K2194  W84  0.2-  0.1-    K21A5  W84  0.1+  0.0  
K199R  W84  0.1-  0.1+    K2194  W84  0.0   0.2+    K21A5  W84  0.0   0.1- 
2021 RE237                                                                      
Epoch 2023 Sept. 13.0 TT = JDT 2460200.5                Pike                    
M 359.45300              (2000.0)            P               Q                  
n   0.00317023     Peri.  223.47228     +0.99825134     +0.05203786             
a  45.8925206      Node   133.52224     -0.03784660     +0.92704061             
e   0.1272823      Incl.    2.21631     -0.04540817     +0.37133241             
P 311              H    8.96          G   0.15           U   7                  
Residuals in seconds of arc
K198T  W84  0.0   0.0     K20AH  W84  0.0   0.1-    K21A7  W84  0.0   0.1+ 
K198T  W84  0.0   0.0     K2195  W84  0.1+  0.2+    K21A7  W84  0.0   0.1- 
K20AH  W84  0.0   0.1-    K2195  W84  0.2-  0.1-    
M. P. C. Staff               (C) Copyright 2023 MPC           M.P.E.C. 2023-W149
    
    
More information about the Iaude
mailing list